Wind_Speed
24 25 26 25 24 23 22 20 20 21 21 22 21 20 20 19 18 17 15 15 15 14 13 12 11 11 12 13 14 16 17 17 16 15 15 15 15 13 12 12 11 11
25 26 26 25 24 22 22 21 21 21 22 23 22 22 22 21 20 20 18 17 17 17 16 14 13 13 12 12 13 16 18 20 19 17 16 15 15 15 14 12 11 11
26 26 25 25 23 22 23 22 21 22 23 23 24 24 23 23 22 22 21 19 19 19 18 17 16 15 14 13 14 17 21 23 23 19 17 16 16 16 15 13 11 10
26 26 25 24 23 23 23 23 22 23 23 23 25 26 24 24 23 23 23 22 22 22 21 19 18 18 18 18 18 20 22 26 26 22 19 18 17 16 15 13 11 10
26 26 25 24 24 24 24 24 24 24 24 24 26 26 25 25 24 24 25 25 24 24 23 22 21 22 23 23 23 23 24 26 27 24 20 19 18 17 16 13 12 11
25 25 25 24 25 26 25 25 25 25 25 25 26 27 27 26 25 25 26 26 26 26 25 24 23 23 25 27 27 27 26 26 26 24 21 20 19 19 17 14 12 11
24 24 25 25 25 26 26 26 26 26 26 27 28 28 28 28 26 26 27 27 28 28 28 27 26 25 28 29 29 29 27 25 24 24 23 22 21 19 17 15 13 11
24 24 24 25 26 26 27 27 27 27 28 29 30 29 29 29 28 28 28 28 29 30 30 30 29 29 30 31 30 29 27 25 25 25 24 23 21 19 16 15 14 12
23 23 24 25 26 26 27 28 27 27 28 30 31 31 30 30 30 31 30 30 30 31 32 32 31 32 33 34 33 31 30 28 26 25 25 23 21 18 16 16 15 12
22 22 24 25 26 26 28 29 28 28 29 30 31 32 32 31 31 32 33 33 32 32 32 34 34 34 34 35 35 34 33 30 27 26 25 23 21 18 17 16 15 13
22 22 23 24 25 26 27 28 29 29 29 30 31 32 32 31 32 33 33 33 33 31 30 33 35 36 35 35 36 36 35 33 30 28 26 24 23 20 18 17 16 15
23 22 22 22 24 25 25 26 27 28 28 29 30 31 32 31 32 33 31 31 32 30 29 31 34 35 36 36 36 37 37 35 33 30 27 25 24 22 20 18 17 15
23 22 21 21 22 22 22 23 25 27 28 27 28 30 32 31 31 31 30 30 31 31 30 31 32 33 34 36 37 37 37 35 32 29 27 25 24 23 21 19 18 16
22 22 22 21 21 20 21 22 23 26 28 28 28 29 31 31 30 30 30 31 31 32 33 33 33 32 31 33 36 36 36 35 32 29 27 25 24 24 22 20 19 17
22 23 23 22 22 22 22 22 23 26 28 30 29 30 31 32 31 30 31 33 33 33 35 35 35 34 31 31 34 35 35 35 33 28 26 26 25 24 23 21 20 18
24 24 24 24 23 23 22 22 24 27 29 31 31 32 33 34 33 32 33 35 35 35 35 36 36 36 33 32 33 34 34 35 32 27 26 27 26 25 23 22 20 19
25 25 24 24 24 23 23 24 26 28 30 32 33 34 35 35 35 35 35 36 37 37 37 36 36 36 34 33 33 33 33 35 33 27 25 28 27 25 25 23 22 20
26 25 25 24 24 24 24 25 27 29 31 33 34 35 36 37 37 37 37 36 37 38 37 37 37 35 34 34 34 33 33 35 35 29 26 29 28 27 27 26 23 21
25 25 25 25 25 25 26 27 29 31 32 34 35 36 37 38 39 39 38 37 37 36 36 36 36 35 35 36 35 34 34 35 36 31 27 30 30 29 29 27 24 21
25 25 25 24 26 28 29 30 31 32 33 34 36 36 36 36 36 37 37 37 36 35 34 35 34 34 36 37 35 36 36 37 36 31 29 32 32 30 29 28 24 22
25 25 25 26 28 30 31 31 31 32 33 32 32 32 31 30 31 32 33 34 34 34 34 35 34 33 36 37 36 37 37 36 36 33 31 33 33 30 30 29 26 23
24 25 26 29 30 31 30 30 30 30 29 28 28 27 27 28 28 29 30 31 33 35 36 37 34 33 36 37 36 37 37 36 37 36 34 35 34 33 32 29 27 24
26 28 30 30 30 30 29 28 27 27 26 26 25 26 27 27 26 27 28 29 31 35 38 39 35 33 35 37 36 38 39 38 39 38 35 34 35 35 34 31 29 26
30 31 31 30 28 27 26 25 25 25 25 25 24 25 26 26 26 26 28 29 31 34 39 39 35 33 35 36 36 38 39 39 40 41 38 36 36 38 36 33 29 27
32 31 30 28 26 24 23 23 24 25 25 24 23 23 24 26 27 27 28 30 32 35 39 39 35 32 33 35 36 37 37 39 41 43 41 38 37 38 37 32 29 30
31 29 27 25 23 22 22 23 24 24 25 23 22 22 23 25 27 29 31 33 34 35 37 37 35 33 32 32 33 33 35 40 43 42 41 37 34 34 34 32 31 33
Wind_Direction
223 223 224 227 229 230 232 228 225 228 228 227 228 227 230 235 239 241 240 247 261 272 280 291 302 313 325 335 345 353 354 350 343 336 334 333 331 329 329 327 325 326
223 223 223 226 229 230 231 229 228 231 232 232 232 231 233 237 241 243 245 249 260 270 278 285 293 302 312 322 334 345 348 347 342 334 327 326 326 325 325 325 322 323
223 223 224 226 228 230 230 230 230 233 235 235 235 236 236 239 242 244 248 253 259 268 275 282 288 295 300 305 317 328 331 332 332 330 324 319 321 323 321 320 318 315
223 223 224 227 229 231 231 231 232 235 237 237 238 240 240 241 244 246 250 256 261 267 273 279 285 289 291 292 300 309 315 318 319 321 322 318 317 319 317 315 311 306
223 224 225 228 230 232 233 233 235 237 240 241 241 244 246 246 246 248 252 257 262 267 272 277 281 285 286 288 293 298 303 310 312 312 315 316 314 314 314 310 303 299
225 225 227 229 232 235 236 237 238 240 243 244 245 248 251 252 250 250 254 259 263 267 270 273 276 279 281 285 290 295 299 307 313 311 310 312 312 310 310 306 298 295
227 228 229 232 234 237 240 241 241 243 246 248 250 252 255 258 256 254 257 261 264 268 270 272 274 275 280 283 286 291 297 305 313 312 308 307 308 306 305 301 295 292
231 232 233 235 237 240 243 245 245 246 248 251 254 257 261 264 261 258 261 265 268 271 272 273 273 275 280 284 283 286 293 300 307 309 305 303 303 302 301 297 290 286
233 234 236 238 240 243 245 248 250 250 252 254 258 261 265 268 266 263 265 269 272 273 274 275 277 278 280 283 281 282 287 294 302 306 302 298 297 297 296 291 285 280
234 235 237 240 242 245 247 250 253 254 255 258 261 265 268 270 270 269 270 272 273 275 278 279 281 282 282 282 281 279 282 289 299 304 300 295 294 293 291 287 280 277
233 235 238 241 244 247 249 251 255 258 259 261 264 268 272 272 272 272 274 276 276 280 286 285 283 281 280 282 281 278 279 285 294 300 296 291 291 288 285 284 280 276
234 237 240 243 245 248 250 252 256 261 263 263 264 267 272 273 272 273 276 279 279 280 286 288 286 281 277 278 279 278 278 282 290 295 292 287 288 285 280 280 279 276
236 240 244 245 247 249 251 253 256 261 264 265 264 265 269 273 274 275 277 279 279 279 282 287 289 285 279 276 276 277 278 279 285 291 289 283 284 284 279 277 277 274
238 242 245 247 249 248 249 251 254 258 263 266 267 266 268 273 276 278 278 276 276 276 279 284 287 286 283 279 276 277 278 279 282 286 284 280 282 284 281 278 277 274
239 241 244 246 247 246 246 249 252 255 260 266 271 273 273 276 279 279 278 277 276 275 276 281 285 287 287 284 279 277 279 282 284 282 275 274 278 282 280 276 274 273
239 242 244 246 247 247 247 249 252 255 258 263 270 275 277 280 283 283 281 279 279 278 278 280 283 285 287 285 280 277 279 282 282 278 272 272 275 278 276 270 267 269
238 241 243 245 247 249 249 250 251 254 258 262 267 272 276 280 284 286 284 283 281 281 281 281 281 283 285 284 280 277 277 277 276 273 269 267 269 273 272 266 263 266
235 237 240 242 244 248 251 253 253 254 257 262 267 272 276 280 285 287 287 286 284 283 282 281 280 280 281 281 278 275 274 273 273 272 265 261 265 269 267 261 259 263
232 232 234 236 240 246 251 253 254 256 258 262 267 272 275 279 283 285 286 286 285 284 283 280 278 277 275 275 275 275 273 270 270 270 261 256 260 264 261 258 257 260
228 229 231 233 238 243 247 250 253 255 259 262 266 270 274 278 282 284 284 285 285 285 283 280 279 276 272 272 273 273 271 266 266 267 259 254 257 258 255 253 253 255
227 228 229 233 237 242 247 251 254 257 260 262 265 269 273 275 276 278 280 282 284 286 284 283 282 277 272 272 274 272 269 265 267 267 259 253 255 253 248 248 251 254
228 229 231 235 240 245 250 254 257 259 261 261 263 268 272 272 272 275 280 284 285 286 285 283 282 278 272 272 271 270 269 268 268 268 262 254 252 251 249 249 253 255
229 231 235 239 243 248 252 255 257 259 259 259 261 267 272 273 273 277 281 283 283 284 283 281 280 279 275 272 270 269 270 268 266 267 264 255 249 248 249 247 248 253
231 233 237 241 245 248 250 253 256 258 258 259 262 268 272 275 278 279 280 281 281 282 281 279 278 277 273 272 273 273 274 274 270 266 262 254 246 244 246 247 249 253
232 234 236 239 241 244 249 255 258 258 258 259 263 268 272 276 280 282 282 282 280 279 279 279 279 277 273 274 277 276 275 276 272 265 259 252 244 243 249 251 251 254
230 231 232 232 237 245 255 262 262 258 257 259 263 268 273 277 281 283 283 282 279 277 279 280 281 280 276 274 275 274 271 270 266 262 259 254 246 248 253 251 251 260
Height
3178 3180 3182 3183 3184 3185 3186 3188 3189 3190 3190 3191 3192 3194 3195 3195 3196 3196 3197 3198 3197 3197 3198 3197 3197 3197 3197 3196 3195 3195 3194 3194 3193 3192 3192 3191 3190 3189 3189 3188 3187 3186
3176 3178 3180 3181 3182 3183 3184 3186 3187 3188 3188 3189 3191 3192 3193 3193 3194 3194 3195 3196 3196 3195 3196 3196 3195 3195 3195 3195 3194 3194 3193 3193 3193 3192 3191 3191 3190 3188 3188 3187 3186 3185
3174 3176 3177 3179 3180 3181 3182 3184 3185 3186 3186 3187 3188 3189 3190 3191 3192 3193 3193 3194 3194 3194 3194 3194 3194 3194 3194 3193 3193 3192 3192 3192 3192 3192 3191 3190 3189 3188 3187 3186 3185 3184
3172 3174 3175 3177 3178 3179 3180 3182 3183 3184 3184 3185 3186 3187 3188 3189 3190 3191 3192 3192 3192 3192 3192 3193 3193 3192 3192 3192 3191 3191 3190 3190 3191 3190 3190 3189 3188 3187 3186 3185 3184 3183
3170 3172 3174 3175 3176 3177 3178 3179 3181 3182 3182 3183 3184 3185 3185 3187 3188 3189 3190 3190 3190 3191 3191 3191 3191 3191 3190 3189 3189 3189 3189 3189 3189 3188 3188 3187 3187 3186 3185 3184 3183 3182
3168 3170 3171 3172 3174 3174 3176 3177 3178 3179 3180 3181 3182 3182 3183 3184 3186 3187 3188 3188 3188 3188 3189 3189 3189 3189 3188 3187 3187 3187 3186 3187 3187 3187 3186 3185 3185 3184 3183 3182 3182 3181
3166 3167 3169 3170 3171 3172 3173 3175 3176 3177 3178 3178 3179 3180 3180 3181 3183 3185 3186 3186 3186 3186 3186 3186 3187 3187 3186 3186 3185 3184 3184 3184 3184 3185 3184 3183 3183 3182 3181 3181 3180 3180
3163 3165 3166 3168 3169 3170 3171 3172 3173 3175 3176 3176 3176 3177 3178 3179 3181 3183 3183 3184 3184 3183 3183 3184 3184 3184 3184 3184 3183 3182 3182 3182 3182 3182 3182 3181 3181 3180 3180 3179 3178 3178
3161 3163 3164 3165 3166 3167 3168 3169 3171 3172 3173 3174 3174 3174 3175 3177 3179 3180 3180 3181 3181 3181 3181 3181 3182 3182 3181 3181 3181 3180 3180 3180 3179 3179 3179 3179 3179 3178 3177 3177 3176 3176
3158 3160 3161 3162 3164 3165 3166 3167 3168 3170 3171 3171 3172 3172 3173 3174 3176 3177 3177 3178 3178 3178 3178 3179 3179 3179 3178 3178 3178 3177 3177 3177 3177 3177 3177 3177 3176 3175 3175 3175 3174 3174
3156 3157 3159 3160 3161 3162 3164 3165 3166 3167 3168 3169 3169 3169 3170 3171 3173 3173 3173 3174 3175 3175 3176 3175 3175 3175 3175 3175 3175 3174 3174 3174 3174 3175 3175 3175 3174 3173 3173 3172 3172 3172
3153 3155 3156 3157 3159 3160 3162 3163 3164 3164 3165 3166 3167 3167 3167 3168 3169 3170 3170 3171 3172 3172 3173 3172 3171 3171 3172 3172 3171 3171 3171 3171 3172 3172 3172 3172 3172 3171 3170 3170 3170 3169
3151 3152 3153 3155 3157 3159 3160 3161 3162 3161 3162 3163 3165 3165 3164 3165 3166 3167 3168 3168 3168 3168 3169 3168 3167 3167 3168 3168 3168 3168 3168 3168 3169 3169 3169 3169 3169 3168 3168 3167 3167 3167
3149 3150 3151 3153 3155 3156 3158 3159 3159 3159 3159 3160 3161 3162 3162 3162 3163 3164 3165 3165 3165 3165 3165 3164 3164 3163 3163 3163 3164 3164 3165 3165 3165 3165 3166 3166 3166 3165 3165 3164 3164 3165
3146 3148 3149 3151 3152 3154 3155 3156 3157 3157 3157 3156 3157 3158 3159 3159 3159 3161 3161 3161 3161 3162 3161 3160 3160 3159 3159 3159 3159 3160 3161 3161 3162 3162 3162 3163 3163 3162 3162 3162 3162 3162
3143 3145 3147 3148 3149 3150 3152 3153 3154 3154 3154 3154 3154 3155 3155 3155 3155 3156 3157 3157 3157 3157 3157 3157 3156 3156 3156 3156 3156 3156 3157 3158 3158 3158 3158 3159 3159 3159 3159 3159 3159 3159
3141 3142 3144 3145 3146 3147 3149 3150 3151 3152 3152 3151 3151 3151 3151 3151 3151 3151 3152 3153 3153 3152 3152 3153 3152 3152 3153 3152 3152 3153 3153 3153 3154 3154 3155 3155 3155 3156 3156 3156 3157 3157
3138 3140 3141 3142 3143 3144 3145 3147 3148 3148 3149 3148 3148 3148 3148 3148 3147 3147 3148 3149 3149 3149 3149 3149 3148 3149 3149 3149 3148 3149 3149 3149 3149 3150 3151 3151 3152 3152 3152 3153 3154 3154
3135 3137 3138 3140 3141 3142 3142 3143 3145 3145 3146 3146 3145 3145 3145 3145 3144 3144 3144 3145 3145 3146 3146 3145 3145 3145 3145 3145 3145 3145 3145 3144 3145 3146 3147 3147 3148 3148 3148 3149 3150 3150
3132 3134 3135 3137 3138 3139 3140 3140 3142 3142 3143 3143 3143 3143 3143 3144 3144 3143 3142 3142 3142 3142 3142 3142 3142 3142 3140 3139 3141 3141 3140 3139 3140 3142 3143 3143 3144 3144 3144 3144 3146 3146
3129 3130 3132 3134 3135 3136 3136 3138 3139 3139 3140 3141 3141 3141 3141 3142 3141 3140 3139 3139 3138 3138 3138 3138 3138 3138 3136 3134 3136 3136 3136 3136 3137 3137 3138 3140 3140 3140 3140 3141 3142 3142
3125 3127 3129 3131 3131 3132 3133 3135 3136 3136 3137 3138 3138 3138 3138 3138 3138 3137 3136 3136 3135 3134 3134 3133 3134 3134 3132 3130 3132 3132 3132 3134 3133 3133 3135 3136 3135 3135 3136 3138 3139 3139
3122 3124 3126 3127 3128 3130 3131 3132 3133 3134 3135 3136 3135 3135 3134 3134 3135 3135 3134 3133 3132 3130 3129 3128 3129 3130 3128 3127 3128 3129 3129 3129 3129 3130 3131 3131 3131 3131 3133 3134 3135 3135
3119 3121 3122 3124 3126 3127 3129 3130 3131 3132 3132 3132 3132 3131 3130 3130 3131 3131 3131 3130 3129 3127 3124 3123 3125 3126 3124 3124 3124 3124 3124 3125 3125 3124 3125 3126 3127 3127 3128 3130 3131 3131
3116 3118 3120 3122 3123 3125 3126 3127 3128 3129 3129 3129 3129 3128 3127 3127 3127 3127 3126 3126 3125 3123 3120 3119 3121 3122 3121 3121 3121 3121 3121 3121 3120 3118 3118 3120 3122 3124 3126 3128 3129 3128
3113 3115 3117 3119 3120 3122 3123 3124 3125 3125 3125 3126 3126 3126 3125 3124 3123 3122 3121 3120 3120 3119 3117 3116 3117 3118 3119 3118 3118 3118 3117 3116 3114 3113 3114 3116 3119 3122 3124 3125 3125 3125